sat.trackr.live / text

‹ back to catalog

STARLINK-37067

NORAD 68086 · 2026-042T

PAYLOAD ACTIVE UNKNOWN

§ Identity

Operator
Country
US
Launch date
2026-03-04
Launch site
AFETR
Launch vehicle
Mass (kg)
RCS (m²)

Purposes: comms

External: N2YO · Heavens-Above · Gunter

§ Orbital elements

Epoch: 2026-05-24T22:44:23.930016Z

Period
93.85 min
Inclination
53.1590°
Eccentricity
0.0001327
Mean motion
15.34400430 rev/d
Perigee alt
461.8 km
Apogee alt
463.6 km
Semi-major
6,840.8 km
B*
3.2748e-4
RAAN
182.1327°
Arg perigee
80.1668°
Mean anomaly
279.9484°
Rev number
1,401

§ Raw data

STARLINK-370671 68086U 26042T   26144.94749919  .00010704  00000+0  32748-3 0  99992 68086  53.1590 182.1327 0001327  80.1668 279.9484 15.34400430 14012

JSON: /api/v1/satellites/68086 · /tle

For live sub-satellite position, see the globe view (requires WebGL).

§ Visibility from observer

Set your observer location to see the next 7 days of passes ≥ 10°. The values pass through the URL so the page stays shareable.

No JS? Fill the form by hand. The geolocation button needs JavaScript.